Simultaneous Nadir Overpasses (SNOs) Predictions

Prediction of SNOs between GOES-16 and AQUA Satellite Orbit:

Table of predicted SNOs for the next 14.0 days since TLE Epoch: 6/17/2023
Index Date Time (GOES-16) GOES-16 Lat,Lon AQUA Lat,Lon Distance(km) Time Diff (sec)
1 06/18/2023 18:39:17 0.02, -75.21 0.67, -72.15 348.24 80
2 06/19/2023 06:57:23 -0.03, -75.21 0.36, -77.18 223.50 80
3 06/21/2023 06:45:55 -0.03, -75.23 -0.35, -73.73 170.28 80
4 06/21/2023 19:04:08 0.03, -75.24 -0.74, -78.79 404.70 80
5 06/23/2023 18:50:01 0.02, -75.26 0.02, -75.35 9.73 80
6 06/25/2023 18:38:32 0.02, -75.29 0.74, -71.89 386.27 80
7 06/26/2023 06:56:36 -0.03, -75.30 0.33, -76.92 184.64 80
8 06/28/2023 06:45:07 -0.03, -75.33 -0.43, -73.47 212.06 80
9 06/28/2023 19:03:21 0.03, -75.35 -0.63, -78.53 362.32 80
10 06/30/2023 18:51:51 0.04, -75.38 0.10, -75.08 34.70 80
